Location: Oroua River
(40.4333°S, 175.4333°E)
Time: 14:57:02
(UTC+00:00)

GEOS 3 Rocket - Pass Details

Date: 03 February 2023
Orbit: 772 x 846 km, 115.0° (Epoch: 22 March)

Event Time Altitude Azimuth Distance (km) Brightness Sun altitude
Rises 13:56:31 0° 151° (SSE) 3,300 8.0 -29.8°
Reaches altitude 10° 13:58:54 10° 156° (SSE) 2,360 7.0 -29.6°
Enters shadow 14:03:36 45° 223° (SW) 1,068 4.3 -29.2°
